Location: Arrien
(42.8963°N, 1.0429°E)
Time: 14:16:01
(UTC+00:00)

BlueWalker 3 - Pass Details

Date: 25 February 2026
Orbit: 451 x 458 km, 53.2° (Epoch: 6 March)

Event Time Altitude Azimuth Distance (km) Brightness Sun altitude
Exits shadow 04:39:49 18° 164° (SSE) 1,171 3.8 -22.4°
Maximum altitude 04:41:10 23° 132° (SE) 1,021 3.9 -22.2°
Drops below altitude 10° 04:44:03 10° 78° (ENE) 1,597 5.6 -21.7°
Sets 04:46:29 0° 64° (ENE) 2,473 6.7 -21.2°
